Glasgow, MT

9:58 AM MST on January 23, 2017 (GMT -0700)
Wokal-Glasgow International

Weather History for KGGW - December, 2012

Change the Weather History Date:

Wednesday, December 5, 2012

  Actual Average Record
Temperature  
Mean Temperature 42 °F 20 °F  
Max Temperature 51 °F 29 °F 57 °F (1939)
Min Temperature 32 °F 10 °F -29 °F (1972)
Degree Days  
Heating Degree Days 23 46  
Month to date heating degree days 158 224  
Since 1 July heating degree days 2165 2217  
Cooling Degree Days 0 0  
Month to date cooling degree days 0 0  
Year to date cooling degree days 681 533  
Moisture  
Dew Point 27 °F    
Average Humidity 65    
Maximum Humidity 82    
Minimum Humidity 48    
Precipitation  
Precipitation T in 0.01 in 0.52 in (1927)
Month to date precipitation 0.04 0.06  
Year to date precipitation 12.60 11.32  
Snow  
Snow 0.00 in 0.20 in 4.60 in (1927)
Month to date snowfall 0.0 1.0  
Since 1 July snowfall 13.3 7.6  
Snow Depth 0.00 in    
Sea Level Pressure  
Sea Level Pressure 29.77 in    
Wind  
Wind Speed 13 mph (NNW)    
Max Wind Speed 26 mph    
Max Gust Speed 36 mph    
Visibility 10 miles    
Events      
T = Trace of Precipitation, MM = Missing Value Source: NWS Daily Summary

Daily Weather History Graph

Daily Weather History Graph

Search for Another Location

Airport or City:

Trip Planner

Search our weather history database for the weather conditions in past years. The results will help you decide how hot, cold, wet, or windy it might be!

Date:

Astronomy

Dec. 05, 2012 Rise Set
Actual Time 7:41 AM MST 4:13 PM MST
Civil Twilight 7:05 AM MST 4:49 PM MST
Nautical Twilight 6:25 AM MST 5:28 PM MST
Astronomical Twilight 5:48 AM MST 6:06 PM MST
Moon 11:29 PM MST (12/5) 11:44 AM MST (12/5)
Length of Visible Light 9h 43m
Length of Day
8h 31m
Waning Gibbous, 59% of the Moon is Illuminated
Dec 5
Waning Gibbous
Dec 6
Last Quarter
Dec 13
New
Dec 19
First Quarter
Dec 28
Full

Hourly Weather History & Observations

Time (MST) Temp. Windchill Dew Point Humidity Pressure Visibility Wind Dir Wind Speed Gust Speed Precip Events Conditions
12:53 AM 34.0 °F 24.6 °F 25.0 °F 70% 29.83 in 10.0 mi East 13.8 mph - N/A   Partly Cloudy
1:53 AM 33.1 °F 24.4 °F 25.0 °F 72% 29.83 in 10.0 mi East 11.5 mph - N/A   Clear
2:53 AM 33.1 °F 24.4 °F 25.0 °F 72% 29.81 in 10.0 mi ESE 11.5 mph - N/A   Clear
3:53 AM 34.0 °F 24.6 °F 26.1 °F 73% 29.78 in 10.0 mi ESE 13.8 mph - N/A   Clear
4:53 AM 35.1 °F 26.9 °F 27.0 °F 72% 29.75 in 10.0 mi ESE 11.5 mph - N/A   Clear
5:53 AM 36.0 °F 28.0 °F 27.0 °F 70% 29.72 in 10.0 mi ESE 11.5 mph - N/A   Clear
7:53 AM 34.0 °F 27.2 °F 28.0 °F 79% 29.69 in 10.0 mi ESE 8.1 mph - N/A   Clear
8:53 AM 37.0 °F 30.4 °F 30.0 °F 76% 29.67 in 10.0 mi ESE 9.2 mph - N/A   Partly Cloudy
9:53 AM 37.0 °F 31.0 °F 30.0 °F 76% 29.66 in 10.0 mi East 8.1 mph - N/A   Partly Cloudy
10:53 AM 39.9 °F 36.7 °F 30.9 °F 70% 29.65 in 10.0 mi ESE 4.6 mph - N/A   Clear
11:53 AM 42.1 °F - 33.1 °F 70% 29.62 in 10.0 mi Calm Calm - N/A   Clear
12:53 PM 45.0 °F - 34.0 °F 65% 29.60 in 10.0 mi Calm Calm - N/A   Clear
1:53 PM 50.0 °F - 34.0 °F 54% 29.60 in 10.0 mi West 5.8 mph - N/A   Clear
2:53 PM 48.9 °F - 37.0 °F 64% 29.65 in 10.0 mi WNW 16.1 mph - N/A   Overcast
3:53 PM 45.0 °F 36.4 °F 27.0 °F 49% 29.71 in 10.0 mi NW 23.0 mph 31.1 mph N/A   Clear
4:53 PM 42.1 °F 33.1 °F 27.0 °F 55% 29.77 in 10.0 mi WNW 20.7 mph 31.1 mph N/A   Clear
5:53 PM 39.9 °F 30.2 °F 27.0 °F 60% 29.81 in 10.0 mi WNW 20.7 mph 31.1 mph N/A   Clear
6:53 PM 37.9 °F 28.2 °F 27.0 °F 65% 29.85 in 10.0 mi WNW 18.4 mph 27.6 mph N/A   Clear
7:53 PM 37.0 °F 27.0 °F 25.0 °F 62% 29.87 in 10.0 mi WNW 18.4 mph 27.6 mph N/A   Clear
8:53 PM 37.0 °F 27.4 °F 19.9 °F 50% 29.89 in 10.0 mi West 17.3 mph 27.6 mph N/A   Clear
9:53 PM 35.1 °F 25.2 °F 19.9 °F 54% 29.92 in 10.0 mi West 16.1 mph 25.3 mph N/A   Clear
10:53 PM 33.1 °F 22.6 °F 21.0 °F 61% 29.94 in 10.0 mi West 16.1 mph - N/A   Clear
11:53 PM 35.1 °F 23.3 °F 19.9 °F 54% 29.96 in 10.0 mi WNW 23.0 mph 33.4 mph N/A   Clear